Location: Sabalos
(43.2860°N, 0.1414°E)
Time: 04:35:10
(UTC+00:00)

MOS 1-B Rocket - Pass Details

Date: 05 July 2020
Orbit: 890 x 1605 km, 99.1° (Epoch: 06 August)

Event Time Altitude Azimuth Distance (km) Brightness Sun altitude
Rises 22:36:12 0° 15° (NNE) 4,417 8.3 -21.0°
Reaches altitude 10° 22:39:10 10° 18° (NNE) 3,340 7.5 -21.2°
Maximum altitude 22:46:45 67° 101° (E) 1,247 4.4 -21.7°
Enters shadow 22:49:23 39° 170° (S) 1,604 4.6 -21.8°
